Forside
METAR-TAF:

METAR-TAF

Lufthavne :

Pella Municipal Airport

Pella, Iowa, USA

Breddekreds: 41-24N, længdekreds: 092-56W, højde: 270 m

Aktuelle vejr

Denne rapport blev lavet for 17 minutter siden, kl. 13:55 UTC
Vind 4 kt fra østnordøst
Temperatur 11°C
Fugtighed 66%
Tryk 1028 hPa
Sigt: 16.1 km
skyfri

METAR: KPEA 111355Z AUTO 06004KT 10SM CLR 11/05 A3036 RMK AO2 T01120048

Tid: 09:12 (14:12 UTC)


TAF: fraværende

Vejrobservationer og prognoser fra mere end 4000 lufthavne (METAR og TAF).

De gule og røde prikker repræsenterer de meteorologiske stationer.

Flyt musen over at se navnet på stationen.

Så klik over at se vejr observationer og prognoser.

At skifte det kort: Klik på de grønne knapper med et sort kors for at zoome ind; på den grønne knap med en bindestreg for at zoome ud; eller på de grønne pile for tilstødende kort.


METAR-TAF: